Hourly Data Report for October 02, 2017

All times are specified in Local Standard Time (LST). Add 1 hour to adjust for Daylight Saving Time where and when it is observed.

CLYDE RIVER A
NUNAVUT

70°29'09.000" N
68°31'01.000" W
26.50 m
2400804
71090
YCY

Download Data

Hourly Data (October 2017)
Hourly Data Report for October 2, 2017
Temp Definition
°C
Dew Point Temp Definition
°C
Rel Hum Definition
%
Wind Dir Definition
10's deg

Wind Spd Definition
km/h
Visibility Definition
km
Stn Press Definition
kPa
Hmdx Definition


Wind Chill Definition


Weather Definition


TIME
00:00 Legend Double Dagger -6.8 -8.6 87 28 13 16.1 100.77   -12 LegendNANA
01:00 Legend Double Dagger -7.2 -8.9 88 28 8 16.1 100.76   -11 LegendNANA
02:00 Legend Double Dagger -6.4 -8.4 86 28 9 16.1 100.77   -11 LegendNANA
03:00 Legend Double Dagger -4.9 -7.3 84 28 5 16.1 100.75   -7 LegendNANA
04:00 Legend Double Dagger -4.7 -7.0 84 26 8 16.1 100.73   -8 LegendNANA
05:00 Legend Double Dagger -4.6 -6.6 86 26 11 16.1 100.68   -9 LegendNANA
06:00 Legend Double Dagger -3.8 -6.0 85 24 5 16.1 100.62   -6 LegendNANA
07:00 Legend Double Dagger -2.7 -5.0 84 LegendMM 4 16.1 100.58   -4 LegendNANA
08:00 Legend Double Dagger -3.0 -6.1 79 23 13 16.1 100.51   -8 LegendNANA
09:00 Legend Double Dagger -3.0 -5.7 82 25 5 16.1 100.46   -5 LegendNANA
10:00 Legend Double Dagger -2.6 -5.8 79   0 16.1 100.42     LegendNANA
11:00 Legend Double Dagger -2.4 -5.4 80 32 9 16.1 100.38   -6 LegendNANA
12:00 Legend Double Dagger -2.3 -5.1 81 6 5 16.1 100.31   -4 LegendNANA
13:00 Legend Double Dagger -1.0 -4.5 77 25 13 16.1 100.28   -5 LegendNANA
14:00 Legend Double Dagger -0.9 -4.6 76 25 17 16.1 100.23   -6 LegendNANA
15:00 Legend Double Dagger -0.6 -4.1 77 19 9 16.1 100.19   -4 LegendNANA
16:00 Legend Double Dagger -0.2 -4.3 74 21 22 16.1 100.11   -6 LegendNANA
17:00 Legend Double Dagger -0.2 -4.3 74 19 15 16.1 100.07   -5 LegendNANA
18:00 Legend Double Dagger -0.8 -3.8 80 14 15 16.1 100.01   -5 LegendNANA
19:00 Legend Double Dagger -0.4 -3.5 80 16 24 16.1 99.95   -6 LegendNANA
20:00 Legend Double Dagger -0.4 -3.8 78 15 21 16.1 99.87   -6 LegendNANA
21:00 Legend Double Dagger -0.4 -2.6 85 17 24 16.1 99.78   -6 LegendNANA
22:00 Legend Double Dagger -0.3 -2.4 86 16 28 16.1 99.65   -7 LegendNANA
23:00 Legend Double Dagger -0.3 -2.1 88 14 13 16.1 99.59   -4 LegendNANA

Notes on Data Quality.

Legend

  • E = Estimated
  • M = Missing
  • NA = Not Available
  • ‡ = Partner data that is not subject to review by the National Climate Archives
Date modified: